Weather Roundup
Issued by NWS Chicago, IL

Home | Current Version | Previous Version | Text Only | Print | Product List | Glossary Off
Versions: 1 2 3 4 5 6 7 8 9 10 11 12 13 14 15 16 17 18 19 20 21 22 23 24 25 26 27 28 29 30 31 32 33 34 35 36 37 38 39 40 41 42 43 44 45 46 47 48 49 50

000
NZUS59 KLOT 242208
HRRLOT

CHICAGO AREA WEATHER ROUNDUP
NATIONAL WEATHER SERVICE CHICAGO/ROMEOVILLE IL
500 PM CDT MON APR 24 2017

NOTE: "FAIR" INDICATES FEW OR NO CLOUDS BELOW 12,000 FEET WITH NO
SIGNIFICANT WEATHER AND/OR OBSTRUCTIONS TO VISIBILITY.

* THESE STATIONS ARE NOT UNDER NWS QUALITY CONTROL. THEY ALSO MAY NOT
  REPORT WEATHER SUCH AS PRECIPITATION OR FOG.

ILZ005-006-012>014-019>023-242300-
NORTHEAST ILLINOIS

CITY           SKY/WX    TMP DP  RH WIND       PRES   REMARKS
OHARE          CLOUDY    71  28  20 E13       29.82F
MIDWAY         PTSUNNY   70  32  24 E13       29.83F
AURORA         SUNNY     74  31  20 SE9G18    29.80F
LANSING*       SUNNY     72  43  35 NE5       29.82F
JOLIET*        SUNNY     75  31  19 SE10      29.80F
WAUKEGAN       CLOUDY    61  34  36 E7        29.84F
DUPAGE AIRPORT SUNNY     73  31  21 SE14      29.80F
WHEELING       CLOUDY    68  31  25 E12       29.84F
KANKAKEE*      SUNNY     77  28  16 E14       29.81F
MORRIS*        SUNNY     76  22  13 SE12G17   29.78F
LEWIS AIRPORT* SUNNY     73  37  26 SE14      29.81F
NORTHERLY ISL    N/A     59  37  44 N8          N/A
$$

WIZ051-052-058>065-066-070>072-242300-
SOUTHEAST WISCONSIN

CITY           SKY/WX    TMP DP  RH WIND       PRES   REMARKS
MILWAUKEE      CLOUDY    64  33  31 SE12      29.86F
KENOSHA*       MOSUNNY   65  31  28 SE13      29.85F
RACINE*        MOSUNNY   60  33  36 E8        29.87F
WAUKESHA       SUNNY     64  23  20 SE14      29.84F
WEST BEND      CLOUDY    64  27  24 SE15G23   29.84F
$$

INZ001>003-010>013-019-020-242300-
NORTHWEST INDIANA

CITY           SKY/WX    TMP DP  RH WIND       PRES   REMARKS
GARY*          PTSUNNY   66  32  28 NE9       29.84F
MICHIGAN CITY* NOT AVBL
RENSSELAER*    NOT AVBL
VALPARAISO     SUNNY     75  29  18 E13G22    29.83F
$$

LMZ740>746-242300-
SOUTHERN LAKE MICHIGAN

STATION/POSITION TIME  SKY/WX   TEMP WIND        PRES    VSBY
                                AIR  DIR/SP/G
                 (UTC)          (F)  (DEG/KT/KT) (MB)    (MI)
HARRISON CRIB    2130            52  360/  7/  7   N/A
BURNHAM HARBOR   2200            58   10/  8/  8   N/A
CALUMET HARBOR   2136            57  350/  7/  9 1010.2F
BURNS HARBOR     2140            56   70/ 10/ 13 1010.8F
MICHIGAN CITY    2140            59   20/  8/ 10   N/A
$$

ABBREVIATIONS USED IN REMARKS
   TC - TEMPERATURE IN CELSIUS
  WCI - WIND CHILL INDEX
   HX - HEAT INDEX
  VSB - VISIBILITY
$$



USA.gov is the U.S. government's official web portal to all federal, state and local government web resources and services.